Wind_Speed
32 31 30 30 30 29 30 31 31 31 32 34 34 35 36 37 38 39 40 41 42 43 44 45 45 45 47 48 49 49 50 49 49 49 50 50 50 51 51 50 50 49 48 47
31 30 30 29 29 30 30 31 30 31 32 33 34 34 35 37 38 39 39 41 41 42 44 45 45 45 46 47 49 50 50 49 49 50 50 50 51 51 52 51 51 51 50 49
31 30 29 29 30 30 30 31 30 30 31 32 33 32 31 35 37 37 38 40 41 41 42 43 44 44 46 47 49 50 51 51 50 51 51 51 52 53 53 53 52 52 52 51
30 30 29 29 30 30 29 29 29 29 30 31 31 32 31 31 34 36 37 38 38 39 40 41 43 44 45 46 48 50 50 51 50 51 52 51 51 51 52 53 52 52 52 52
31 30 30 30 31 31 29 28 28 28 29 30 30 31 31 30 31 33 34 35 36 38 38 40 41 43 45 46 48 50 50 50 50 50 52 52 51 50 51 52 53 53 53 53
31 31 31 30 30 30 29 28 27 27 28 29 28 29 29 29 29 30 32 33 34 36 37 38 40 41 43 44 46 48 49 49 50 50 50 51 52 51 51 52 53 53 53 53
32 31 31 31 31 30 29 28 28 27 27 27 26 27 27 28 28 28 29 31 33 34 36 37 38 40 41 43 44 47 49 49 50 49 49 51 52 51 51 53 54 54 53 53
32 31 31 31 31 30 28 27 26 27 27 26 26 27 26 26 27 28 28 30 31 33 34 36 37 39 41 43 44 46 47 48 48 49 47 49 51 51 51 52 54 55 54 53
33 32 31 31 31 29 28 27 26 27 27 27 26 27 27 25 26 27 29 30 31 32 33 34 36 38 40 41 43 44 46 47 48 48 49 46 48 50 51 52 53 55 56 55
33 33 32 31 30 29 28 27 26 26 26 27 27 26 26 25 26 28 29 30 31 31 33 34 35 36 39 40 41 43 45 46 47 48 48 47 46 47 50 52 52 54 55 55
33 33 32 31 29 28 27 26 25 25 25 26 28 26 26 26 26 28 30 30 30 31 33 34 35 37 38 39 41 42 43 45 46 47 48 48 48 47 48 50 51 53 54 54
34 33 32 31 29 28 27 26 25 25 26 26 27 26 26 26 26 27 28 29 29 30 32 33 35 36 37 39 40 42 43 44 45 46 47 47 49 49 47 49 51 52 53 53
33 33 32 31 29 27 26 26 25 26 26 26 26 26 26 27 27 27 27 29 31 30 31 32 34 35 36 37 38 39 42 44 45 45 45 47 48 50 50 50 51 53 54 54
33 32 31 30 29 28 26 26 25 25 25 25 25 25 26 27 28 28 28 29 31 32 32 32 33 35 37 38 39 39 41 44 45 45 45 46 47 49 52 53 53 54 55 56
33 32 31 29 29 28 27 26 25 25 26 26 25 26 26 27 27 28 28 29 31 32 32 33 34 36 36 37 38 40 42 43 44 45 46 47 47 48 49 52 54 54 55 56
33 32 31 29 29 28 27 26 26 26 27 26 26 26 26 27 27 28 28 29 29 31 32 33 35 36 37 38 39 40 41 42 43 44 46 47 48 48 49 50 52 53 54 55
32 32 31 29 29 29 28 27 27 27 27 27 27 26 26 26 26 27 28 28 28 29 31 32 34 35 36 38 40 41 42 42 43 44 46 47 47 48 49 50 52 54 54 54
31 31 30 30 29 29 29 28 28 27 27 27 27 26 26 26 26 26 27 28 28 27 29 31 32 34 36 37 38 41 42 43 44 45 46 47 48 48 48 49 50 52 55 55
30 30 30 30 30 30 29 28 28 28 27 27 27 27 27 27 26 26 27 28 28 27 28 30 32 33 35 36 37 38 40 42 43 44 46 47 48 49 49 49 50 51 53 55
30 30 30 30 30 30 29 29 28 28 27 27 28 27 27 27 27 26 27 27 28 28 28 29 31 32 33 35 36 38 39 41 42 43 44 47 48 48 48 49 50 51 51 53
30 30 29 30 30 30 30 29 28 28 28 28 28 28 28 28 27 26 27 27 27 28 28 29 30 32 32 33 35 36 37 39 41 42 43 45 47 47 47 48 50 51 51 52
30 30 30 30 30 30 30 29 29 29 29 29 29 29 29 28 28 28 27 27 27 28 28 29 29 30 31 32 33 33 34 36 38 40 42 43 44 46 47 48 48 49 51 52
31 31 31 31 31 30 30 29 29 29 29 29 29 29 29 28 28 28 28 28 27 28 28 29 29 28 29 30 31 31 32 33 35 37 39 40 41 42 43 44 45 47 49 51
32 32 32 31 30 30 30 30 30 30 29 29 29 29 28 28 28 28 28 28 28 27 28 29 28 28 29 30 30 30 30 31 33 35 36 38 38 39 41 42 43 44 46 47
32 32 31 30 30 30 30 30 30 30 30 29 29 29 28 27 27 27 28 28 28 28 28 29 28 27 28 29 29 30 30 31 31 32 33 35 36 37 38 40 40 41 42 43
31 31 30 30 30 31 30 30 30 30 30 29 29 29 29 28 27 27 28 28 28 28 29 29 28 28 28 28 28 29 29 30 29 30 30 32 34 34 35 36 38 38 38 39
Wind_Direction
313 309 308 308 305 297 291 288 286 282 277 274 271 270 266 264 263 260 255 250 247 246 246 246 246 245 243 242 240 239 239 237 236 236 236 235 235 235 235 235 234 234 234 233
315 311 309 309 306 301 295 292 288 284 279 277 274 272 269 267 265 260 256 252 248 247 246 246 246 245 243 241 240 238 238 238 237 236 235 234 234 235 235 234 234 234 234 234
317 315 311 309 308 303 298 295 291 286 282 282 279 275 274 269 265 262 257 252 249 248 246 246 245 244 242 241 240 239 238 239 239 237 235 234 234 235 235 234 234 234 234 234
319 317 313 312 310 307 301 298 293 289 286 284 281 278 275 274 268 262 257 252 248 247 246 244 243 242 242 240 239 238 237 238 238 237 236 235 234 235 234 235 235 234 235 234
319 318 315 314 313 309 304 300 296 291 289 286 284 281 276 272 269 262 257 253 248 247 246 245 243 243 242 240 239 238 237 237 237 237 236 236 234 235 233 233 234 234 234 234
319 317 317 317 315 312 307 302 297 294 291 287 285 282 278 272 270 265 258 252 250 247 245 245 244 243 242 240 239 238 236 236 237 237 237 237 236 235 234 232 232 232 233 233
320 319 318 317 316 314 309 304 298 295 293 291 286 282 278 274 269 265 259 254 251 249 247 247 247 242 241 239 238 237 236 236 237 237 237 237 236 235 234 233 231 231 231 231
320 320 319 317 316 315 311 306 301 297 294 291 287 283 281 277 271 266 259 255 253 251 249 248 246 244 241 238 237 238 237 236 236 236 237 237 236 235 234 233 231 230 230 230
318 318 319 317 315 314 311 306 300 296 294 291 288 284 280 278 272 270 263 257 255 253 252 250 246 245 241 238 239 239 238 238 236 235 235 236 236 235 235 234 233 232 232 232
317 317 318 318 315 312 310 307 301 297 297 294 291 287 282 281 276 273 267 262 257 255 252 251 247 245 240 239 239 239 239 239 238 237 238 237 237 236 234 233 234 233 233 233
315 316 317 317 315 313 309 305 301 296 294 294 293 289 284 283 279 274 269 267 262 258 254 251 247 245 242 241 241 242 241 240 239 239 239 238 235 236 236 233 232 232 232 232
314 315 315 315 314 313 310 305 300 296 294 293 292 291 286 283 280 276 272 268 266 262 258 253 247 243 243 244 244 244 242 241 240 240 239 238 237 235 234 233 233 233 233 232
314 314 313 314 313 312 310 305 300 296 294 292 291 292 289 286 282 279 276 271 267 264 259 253 247 244 244 244 245 244 243 243 242 243 241 240 239 237 236 236 234 234 234 233
312 312 312 312 311 309 309 305 302 299 296 294 292 290 288 286 283 282 279 275 271 266 261 256 250 248 247 247 246 246 246 244 243 244 243 243 240 240 240 238 237 235 235 234
311 310 311 310 308 307 306 304 301 299 298 296 295 292 290 288 285 283 281 279 273 268 264 260 254 250 249 249 249 248 248 245 245 245 245 245 243 243 243 241 239 238 236 235
310 310 310 308 306 305 304 303 301 299 299 298 296 295 293 289 287 285 283 282 276 270 267 263 259 254 250 249 250 250 249 248 248 248 248 246 245 245 245 243 240 239 238 237
309 309 309 307 305 303 304 304 301 300 299 298 297 296 294 292 290 288 286 285 281 273 268 264 260 256 254 253 251 250 252 251 251 251 250 247 245 245 245 243 241 239 238 238
308 308 308 308 307 305 306 304 302 301 300 298 297 296 295 293 292 290 287 285 283 277 271 267 263 260 258 256 255 253 252 253 252 252 250 248 246 246 245 243 241 240 239 238
307 307 307 308 307 306 305 305 304 302 300 299 297 296 295 294 293 290 288 286 285 281 275 271 266 264 262 259 257 255 254 254 253 252 251 250 248 247 246 244 242 241 241 240
306 305 305 306 306 307 307 306 305 303 301 300 299 297 296 294 292 291 288 287 286 285 282 279 273 269 267 264 260 259 258 255 254 254 251 250 249 248 247 245 244 244 243 242
304 303 303 304 304 306 306 306 305 303 303 301 300 298 296 294 292 291 289 288 289 287 284 283 279 274 271 268 265 263 260 256 255 254 252 251 249 248 247 247 246 246 245 244
302 301 300 301 302 305 305 304 303 302 302 301 300 297 295 293 291 290 288 289 289 289 286 285 282 278 274 271 270 267 263 259 256 254 252 250 250 250 250 249 247 247 246 246
300 299 297 297 300 301 302 302 302 301 301 302 300 297 295 292 290 289 288 288 289 289 288 287 285 281 278 275 272 269 265 261 257 254 251 249 248 249 248 247 247 246 246 247
299 296 295 296 298 297 299 300 300 301 301 302 302 300 298 295 292 290 289 288 287 288 288 288 287 283 279 277 273 270 266 263 261 257 252 249 248 248 248 247 247 246 245 246
298 295 294 295 295 295 296 297 299 300 301 301 301 300 299 297 295 291 289 288 286 286 287 288 286 284 281 278 274 272 268 264 261 257 253 250 250 250 249 248 248 248 247 246
294 293 293 293 294 294 295 296 297 298 298 299 300 300 298 297 295 293 292 290 288 286 286 287 285 284 281 278 276 273 270 266 262 258 255 253 252 250 248 248 247 248 247 245
Height
5700 5696 5691 5687 5682 5679 5675 5673 5671 5671 5668 5667 5667 5667 5666 5666 5666 5667 5668 5670 5674 5678 5681 5685 5688 5691 5694 5697 5700 5705 5709 5713 5717 5722 5727 5731 5736 5740 5745 5750 5755 5759 5764 5768
5694 5688 5684 5679 5675 5671 5668 5664 5662 5662 5659 5658 5657 5656 5656 5655 5654 5654 5656 5658 5661 5664 5668 5671 5674 5677 5680 5684 5688 5692 5696 5700 5705 5710 5714 5719 5724 5728 5733 5738 5743 5748 5753 5757
5686 5682 5676 5672 5667 5663 5660 5656 5654 5652 5650 5649 5647 5646 5646 5644 5642 5643 5644 5645 5648 5651 5655 5658 5661 5664 5667 5671 5675 5679 5684 5688 5692 5697 5701 5706 5710 5715 5720 5726 5731 5736 5740 5746
5680 5675 5670 5665 5661 5656 5653 5649 5646 5644 5641 5639 5638 5635 5636 5634 5632 5632 5633 5634 5636 5639 5642 5645 5648 5652 5655 5659 5663 5667 5671 5676 5679 5683 5689 5693 5698 5703 5708 5713 5719 5723 5728 5734
5673 5669 5664 5659 5654 5649 5645 5642 5639 5636 5632 5630 5629 5626 5627 5623 5623 5622 5622 5623 5625 5627 5630 5633 5636 5639 5643 5646 5650 5654 5659 5663 5667 5671 5676 5680 5685 5690 5695 5700 5706 5711 5716 5721
5667 5662 5657 5652 5647 5642 5638 5635 5632 5629 5625 5623 5621 5618 5617 5615 5614 5613 5613 5613 5614 5616 5619 5621 5624 5627 5630 5634 5638 5642 5646 5651 5655 5659 5663 5668 5672 5677 5682 5687 5693 5698 5704 5709
5661 5656 5651 5646 5641 5637 5632 5629 5625 5621 5618 5616 5614 5610 5609 5606 5605 5604 5604 5605 5605 5607 5609 5610 5612 5615 5618 5622 5626 5630 5634 5639 5643 5646 5650 5655 5659 5664 5669 5675 5680 5686 5691 5697
5654 5650 5645 5639 5635 5630 5626 5622 5619 5614 5611 5609 5606 5603 5603 5600 5598 5596 5595 5595 5596 5597 5599 5600 5602 5604 5607 5610 5614 5618 5623 5627 5631 5635 5639 5643 5647 5651 5656 5661 5667 5672 5678 5684
5647 5643 5638 5633 5628 5624 5619 5616 5612 5608 5603 5601 5599 5597 5596 5593 5590 5588 5587 5587 5587 5588 5589 5590 5592 5594 5596 5600 5603 5607 5611 5615 5619 5623 5627 5631 5635 5639 5644 5649 5654 5660 5665 5671
5640 5636 5632 5627 5622 5617 5613 5609 5605 5601 5597 5594 5592 5590 5588 5586 5584 5581 5580 5580 5579 5580 5580 5581 5582 5584 5587 5590 5593 5597 5601 5604 5608 5612 5616 5620 5623 5627 5632 5637 5642 5647 5653 5659
5634 5630 5625 5620 5615 5611 5607 5603 5598 5595 5591 5588 5584 5586 5581 5579 5577 5575 5573 5572 5572 5572 5572 5572 5573 5575 5578 5581 5584 5587 5590 5594 5597 5601 5605 5608 5612 5616 5620 5625 5630 5634 5640 5646
5627 5623 5618 5614 5609 5604 5600 5596 5592 5590 5585 5581 5578 5580 5575 5572 5569 5567 5566 5565 5564 5564 5563 5564 5565 5567 5569 5572 5574 5577 5580 5583 5586 5589 5593 5597 5601 5605 5609 5613 5617 5622 5628 5633
5620 5616 5611 5607 5604 5599 5594 5590 5586 5582 5579 5575 5572 5574 5568 5565 5563 5560 5559 5558 5557 5556 5555 5556 5557 5558 5561 5563 5565 5567 5570 5573 5576 5579 5582 5585 5589 5593 5597 5601 5605 5610 5615 5620
5613 5609 5606 5602 5596 5591 5588 5584 5580 5576 5572 5569 5567 5565 5563 5559 5556 5554 5552 5550 5549 5549 5548 5549 5549 5550 5552 5554 5555 5558 5560 5563 5565 5568 5571 5574 5577 5581 5585 5589 5593 5598 5603 5608
5606 5602 5598 5594 5589 5585 5581 5578 5574 5570 5566 5563 5561 5558 5556 5552 5549 5547 5545 5542 5541 5541 5541 5541 5541 5542 5543 5544 5546 5548 5550 5552 5554 5557 5560 5562 5565 5569 5572 5576 5580 5585 5590 5595
5598 5594 5590 5587 5582 5577 5574 5571 5567 5563 5560 5556 5553 5551 5548 5545 5542 5539 5537 5535 5533 5533 5532 5532 5533 5533 5534 5535 5537 5538 5540 5542 5544 5546 5548 5551 5554 5557 5560 5564 5568 5573 5577 5583
5591 5586 5582 5579 5574 5570 5568 5565 5560 5557 5553 5549 5546 5545 5541 5538 5535 5532 5530 5528 5526 5525 5524 5524 5523 5524 5525 5526 5527 5529 5530 5531 5533 5535 5537 5539 5542 5545 5548 5552 5556 5560 5565 5570
5583 5578 5574 5570 5567 5563 5563 5557 5553 5549 5546 5542 5539 5536 5533 5530 5528 5525 5523 5520 5518 5517 5516 5515 5514 5514 5515 5515 5516 5518 5519 5520 5522 5523 5525 5527 5530 5532 5535 5539 5543 5548 5552 5557
5575 5571 5567 5563 5558 5556 5554 5549 5545 5541 5539 5535 5531 5529 5526 5523 5520 5518 5515 5513 5511 5509 5508 5506 5505 5505 5504 5505 5505 5506 5507 5508 5510 5511 5513 5515 5517 5520 5523 5527 5531 5535 5539 5544
5567 5563 5560 5555 5551 5548 5547 5542 5536 5534 5531 5528 5523 5521 5518 5515 5513 5512 5508 5506 5503 5501 5500 5498 5496 5495 5495 5494 5494 5495 5496 5497 5498 5499 5501 5503 5505 5508 5511 5515 5519 5522 5526 5531
5559 5555 5552 5548 5543 5541 5538 5533 5529 5527 5524 5519 5516 5513 5510 5507 5505 5503 5500 5498 5496 5494 5492 5490 5488 5486 5485 5484 5484 5484 5484 5485 5486 5487 5489 5491 5493 5496 5499 5503 5506 5510 5514 5519
5551 5547 5544 5540 5536 5536 5530 5525 5523 5519 5515 5511 5508 5505 5502 5499 5496 5494 5492 5490 5488 5485 5483 5481 5479 5477 5476 5475 5474 5473 5474 5474 5474 5476 5477 5479 5481 5484 5487 5490 5494 5498 5502 5506
5542 5539 5535 5533 5531 5526 5521 5518 5514 5511 5507 5504 5500 5497 5494 5491 5489 5486 5483 5481 5479 5477 5475 5472 5470 5469 5467 5465 5464 5464 5463 5463 5464 5465 5466 5468 5470 5472 5475 5478 5481 5485 5489 5493
5533 5529 5526 5523 5521 5517 5513 5509 5506 5503 5499 5496 5492 5489 5485 5483 5480 5477 5475 5472 5470 5468 5466 5464 5462 5460 5458 5456 5455 5454 5454 5453 5453 5454 5455 5457 5459 5461 5463 5466 5469 5473 5476 5480
5524 5520 5517 5514 5512 5508 5505 5501 5498 5495 5491 5488 5484 5480 5477 5474 5471 5469 5466 5464 5462 5459 5457 5455 5453 5451 5449 5447 5446 5445 5444 5444 5444 5444 5445 5446 5448 5450 5452 5455 5458 5461 5464 5468
5515 5511 5508 5506 5503 5499 5497 5493 5490 5487 5483 5480 5476 5473 5469 5466 5463 5461 5458 5455 5453 5451 5448 5446 5444 5442 5440 5438 5437 5436 5435 5434 5434 5435 5436 5437 5438 5440 5442 5444 5447 5449 5453 5456